Location: Culleoka
(33.1312°N, 96.4919°W)
Time: 13:40:16
(UTC+00:00)

Cosmos 1500 Rocket - Pass Details

Date: 04 July 2022
Orbit: 601 x 632 km, 82.5° (Epoch: 18 August)

Event Time Altitude Azimuth Distance (km) Brightness Sun altitude
Exits shadow 08:10:46 11° 102° (ESE) 1,906 6.2 -29.1°
Maximum altitude 08:11:57 12° 86° (E) 1,842 6.3 -29.0°
Drops below altitude 10° 08:13:48 10° 61° (ENE) 2,006 6.8 -28.8°
Sets 08:17:17 0° 32° (NNE) 2,923 8.3 -28.5°
